Regional Weather Roundup
Issued by NWS La Crosse, WI

Current Version | Previous Version | Text Only | Print | Product List | Glossary On
Versions: 1 2 3 4 5 6 7 8 9 10 11 12 13 14 15 16 17 18 19 20 21 22 23 24 25 26 27 28 29 30 31 32 33 34 35 36 37 38 39 40 41 42 43 44 45 46 47 48 49 50
000
ASUS43 KARX 172210
RWRARX

HOURLY WEATHER FOR THE UPPER MISSISSIPPI RIVER VALLEY
NATIONAL WEATHER SERVICE LA CROSSE WI
500 PM CDT WED APR 17 2024

NOTE: "FAIR" indicates few or no clouds below 12,000 feet with no
significant weater and/or obstructions to visibility.

MNZ077-085>088-093>096-172300
Southeast Minnesota

CITY           SKY/WX    TMP DP  RH WIND       PRES   REMARKS
ROCHESTER      CLOUDY    51  42  71 W22G32    29.83R
WINONA         CLOUDY    52  43  71 NW8       29.79R
AUSTIN         PTSUNNY   54  43  66 NW22G28   29.83R
ALBERT LEA     MOSUNNY   55  45  67 W16G24    29.84R
DODGE CENTER   PTSUNNY   54  43  66 W18G29    29.82R
PRESTON        CLOUDY    52  46  82 W23G30    29.80R
OWATONNA       PTSUNNY   55  41  58 W28G33    29.82R
FARIBAULT      PTSUNNY   55  43  62 W18G26    29.83R
$$

WIZ041-042-053>056-061-172300
Southwest Wisconsin

CITY           SKY/WX    TMP DP  RH WIND       PRES   REMARKS
LA CROSSE      CLOUDY    54  42  64 W14G20    29.77R
SPARTA         NOT AVBL
WIS DELLS      CLOUDY    53  46  77 W20       29.72R
PRAIRIE DU CHI CLOUDY    54  44  68 W17G25    29.80R
BOSCOBEL       CLOUDY    55  43  63 W16G25    29.79R
LONE ROCK      CLOUDY    53  44  71 W16G29    29.77R
PLATTEVILLE    CLOUDY    53  46  76 W21G29    29.81R
$$

WIZ017-030-034>036-043>045-172300
Central Wisconsin

CITY           SKY/WX    TMP DP  RH WIND       PRES   REMARKS
MEDFORD        CLOUDY    43  40  89 W12G26    29.67R
WAUSAU         CLOUDY    46  43  89 W18G31    29.63R
BLACK RVR FLS  CLOUDY    50  43  76 W10G23    29.75R
WIS RAPIDS     CLOUDY    48  42  80 W15G31    29.71R
MARSHFIELD     CLOUDY    45  44  97 W21G33    29.69R
MAUSTON        CLOUDY    51  45  78 W14G24    29.73R
CAMP DOUGLAS   NOT AVBL
WAUTOMA        CLOUDY    49  45  86 W17G31    29.69R
$$

IAZ008>011-017>019-029-030-172300
Northeast Iowa

CITY           SKY/WX    TMP DP  RH WIND       PRES   REMARKS
WATERLOO       MOSUNNY   61  43  51 W22G35    29.84R
DUBUQUE        CLOUDY    54  45  71 W20G30    29.83R
DECORAH        CLOUDY    54  45  71 W10G26    29.80R
MASON CITY     MOSUNNY   59  43  55 W24G32    29.87R
CHARLES CITY   PTSUNNY   57  50  77 W22G35    29.84R
OELWEIN        CLOUDY    57  48  72 NW25G32   29.83S
$$

Wind speeds are in miles per hour.

 Abbreviations used in the REMARKS:
VSB - Visibility in statute miles
WCI - Wind chill index
HX  - Heat Index



USA.gov is the U.S. government's official web portal to all federal, state and local government web resources and services.